CAPE
1490 1424 1131 799 798 1631 818 175 247 779 482 659 1189 1193 1652 1462 1270 1128 1335 1636 1198 1293 1429 972 646 479 252 6 0 0 0 0 0 0 0 0 0 0 0 0 0 0 0
1661 1663 1560 1323 856 839 1626 829 335 424 929 505 1218 1288 1429 1677 1616 1420 1285 1502 1851 1426 1499 1348 1071 746 516 75 0 0 0 0 0 0 0 19 0 0 0 0 0 0 0
1562 1555 1560 1565 1302 937 990 1682 1064 439 664 1212 1476 1441 1370 1545 1628 1826 1610 1488 1452 1749 1581 1521 1470 1029 976 540 32 29 4 0 0 0 0 7 0 0 0 0 0 0 0
1701 1680 1513 1655 1688 1471 1112 995 1666 1357 354 956 1536 1896 1701 1730 1586 1653 1920 1881 1714 1612 1608 1648 1594 1400 1321 977 376 87 30 51 0 0 0 0 0 0 0 0 0 0 0
1903 1921 1823 1634 1817 1925 1774 1299 1147 1336 1655 780 1156 1431 2165 2053 1996 1926 1825 1843 2035 2019 1632 1834 1774 1664 1458 1276 957 512 60 49 14 0 0 0 2 49 49 2 0 0 12
2015 2064 2086 2117 1932 2023 2142 2089 1604 1399 1171 1667 1551 1904 1642 2238 2301 1802 1993 2067 1948 1914 1983 1730 1712 1771 1432 934 685 911 420 267 83 82 64 8 6 0 16 16 3 0 7
2041 2100 2270 2278 2424 2320 2276 2312 2325 2169 1849 1263 1378 1889 1956 2028 2129 1338 1263 2090 2127 2098 2057 2022 2001 1873 1699 1812 367 165 288 59 280 47 85 31 4 0 0 2 52 15 29
1562 2157 2290 2521 2521 2583 2548 2455 2460 2450 2578 2364 1775 1609 2125 2062 1983 1142 558 1847 2236 2206 2258 2225 2173 2201 2056 1922 2067 952 606 701 96 29 3 30 19 10 0 0 12 57 2
1324 1447 2298 2495 2782 2740 2672 2688 2654 2681 2566 2587 2665 2382 1954 2062 2077 1317 250 1415 2067 2463 2517 2348 2402 2396 2303 1520 1956 2183 1623 1120 888 81 65 9 1 0 0 0 4 6 25
1423 1599 1654 2243 2617 2780 2794 2795 2878 2764 2798 2710 2667 2778 2735 2591 2195 1165 252 2087 2242 2355 2510 2650 2076 2205 2567 1673 1417 2150 2272 2200 1560 1371 184 9 1 0 0 3 40 6 6
1799 1592 1772 1794 2222 2622 2753 2867 2898 3023 2901 2921 2939 2866 2975 2724 2886 1474 160 2202 2733 2780 2715 2761 2724 2259 1160 1279 421 2389 2496 2493 2244 1546 1376 808 387 192 4 32 87 42 10
1909 2123 2410 2535 2255 2450 2574 2692 2875 2886 3094 3120 3114 3253 3222 3160 2976 2074 443 269 2825 3088 3228 3241 3111 2816 1700 270 0 489 1163 875 2132 2385 1626 1367 1186 521 278 101 74 68 64
2122 2034 2157 2342 2718 2823 2934 2784 2865 3089 3126 3249 3357 3421 3493 3281 3331 2515 1325 101 15 1867 3236 3396 3214 2834 1369 36 0 10 0 551 1690 2335 2413 2096 1323 1078 543 181 88 98 57
2527 2875 2397 2450 2717 2636 3046 3306 3312 3426 3539 3571 3633 3690 3675 3470 3423 1631 540 66 3 1 0 567 1122 1491 1427 1108 511 65 0 172 1010 1665 2075 2432 2157 1397 781 271 24 10 7
1908 3100 3574 3090 2814 2922 659 1550 3212 3409 3468 3785 3740 3820 3550 3170 258 0 24 200 246 33 118 583 905 1256 1761 2300 2446 2341 1459 376 142 420 1030 1635 1968 2037 992 280 24 0 5
1657 2670 3374 3482 3436 2822 185 0 0 0 2 497 831 16 0 0 0 0 0 0 1 2 0 132 609 906 1291 1679 2143 2306 1990 1387 1033 833 825 1053 1232 1536 1572 464 34 0 0
1104 549 1935 2894 3501 3013 76 0 0 0 0 0 0 0 0 0 0 0 0 0 0 0 0 0 0 5 9 0 0 0 0 0 0 0 4 190 586 914 747 640 158 0 0
429 313 1012 945 1769 2438 40 0 0 0 0 0 0 0 0 0 0 0 1 1 0 0 0 0 0 1 0 0 0 0 0 0 0 0 0 0 5 30 24 14 24 238 84
70 165 130 128 65 294 303 87 10 0 0 0 0 0 1 0 0 1 0 0 0 0 0 0 0 0 0 0 0 0 0 0 0 0 1 1 0 0 1 1 5 0 10
0 0 0 0 0 0 0 0 0 0 2 3 1 0 0 0 0 0 0 0 0 0 0 0 0 0 0 0 0 0 0 0 0 0 0 0 0 0 0 0 0 0 0
0 0 0 0 0 0 0 0 1 2 4 4 3 0 0 0 1 1 1 1 2 3 2 2 1 0 0 0 1 1 0 0 0 0 0 0 1 1 0 1 1 2 2
0 0 0 0 0 0 0 0 0 0 1 1 1 0 0 1 2 3 3 4 3 4 3 2 1 1 4 4 0 1 1 0 0 0 0 0 0 0 0 1 1 0 0
0 0 0 0 0 0 0 0 0 0 1 1 1 1 1 2 2 2 3 4 4 3 3 2 2 0 0 1 6 2 1 1 0 0 0 0 0 0 0 0 0 0 0
0 0 0 0 0 0 0 0 0 0 0 0 1 1 2 3 3 3 3 3 3 2 3 5 4 2 0 0 0 0 0 0 0 0 0 0 0 0 0 0 0 0 0
0 0 0 0 0 0 0 0 0 0 0 0 0 0 0 0 1 2 2 2 2 1 1 2 2 1 2 1 0 0 0 0 0 0 0 0 0 0 0 0 0 0 0
0 0 0 0 0 0 0 0 0 0 0 0 0 0 0 0 0 0 0 1 1 1 1 1 1 1 0 0 0 0 0 0 0 0 0 0 0 0 0 0 0 0 0
CIN
-176 -192 -223 -267 -260 -121 -249 -434 -361 -233 -285 -214 -139 -142 -104 -119 -132 -140 -120 -94 -133 -123 -117 -180 -233 -289 -349 -239 0 0 0 0 0 0 0 0 0 0 0 0 0 0 0
-255 -233 -224 -229 -291 -279 -142 -287 -393 -354 -216 -270 -170 -153 -157 -125 -112 -120 -142 -106 -74 -118 -126 -146 -192 -261 -349 -497 0 0 0 0 0 0 0 -510 0 0 0 0 0 0 0
-279 -276 -256 -225 -264 -331 -319 -179 -282 -383 -299 -190 -156 -172 -181 -156 -142 -121 -132 -134 -156 -115 -132 -142 -171 -229 -254 -375 -607 -546 -123 0 0 0 0 -525 0 0 0 0 0 0 0
-291 -296 -314 -281 -264 -296 -355 -353 -209 -246 -430 -284 -194 -141 -170 -161 -165 -152 -124 -123 -138 -159 -156 -142 -151 -197 -209 -263 -391 -534 -579 -435 0 0 0 0 0 0 0 0 0 0 0
-334 -324 -345 -356 -302 -270 -289 -365 -368 -305 -259 -382 -288 -266 -146 -150 -149 -149 -150 -147 -123 -122 -172 -155 -163 -182 -220 -236 -257 -382 -569 -585 -523 0 0 0 -104 -548 -490 -228 0 0 -391
-400 -397 -360 -340 -359 -345 -303 -305 -362 -383 -413 -298 -313 -243 -295 -185 -157 -233 -175 -146 -148 -148 -147 -192 -189 -186 -274 -368 -379 -280 -421 -425 -535 -486 -515 -618 -570 0 -602 -514 -542 0 -479
-453 -425 -392 -381 -347 -369 -360 -316 -301 -327 -357 -463 -413 -311 -299 -278 -232 -378 -377 -190 -171 -178 -178 -165 -176 -199 -252 -223 -603 -620 -487 -612 -442 -521 -508 -570 -511 0 0 -483 -418 -425 -341
-450 -433 -415 -362 -361 -345 -332 -324 -311 -305 -285 -326 -414 -424 -330 -332 -298 -461 -604 -261 -169 -188 -196 -198 -211 -213 -238 -250 -178 -409 -486 -443 -689 -397 -278 -601 -651 -612 0 0 -393 -422 -152
-447 -483 -460 -414 -368 -357 -359 -345 -331 -305 -310 -314 -310 -337 -404 -363 -326 -447 -740 -375 -225 -169 -179 -225 -232 -233 -231 -337 -220 -155 -291 -492 -485 -742 -676 -713 -118 -8 0 0 -333 -488 -493
-437 -462 -462 -435 -389 -382 -388 -369 -347 -327 -314 -299 -296 -275 -282 -285 -325 -542 -787 -252 -239 -223 -202 -220 -330 -283 -180 -330 -356 -169 -187 -285 -269 -299 -686 -62 -24 0 0 -269 -473 -458 -385
-359 -379 -442 -463 -461 -395 -371 -350 -327 -300 -291 -278 -265 -261 -241 -275 -215 -486 -911 -274 -196 -173 -193 -213 -206 -278 -523 -463 -724 -169 -186 -121 -119 -243 -306 -446 -540 -604 -200 -664 -390 -366 -386
-457 -497 -441 -406 -404 -394 -379 -366 -318 -292 -258 -254 -241 -213 -205 -190 -195 -359 -844 -360 -203 -154 -150 -158 -159 -177 -378 -824 0 -733 -474 -512 -136 -58 -197 -312 -308 -469 -547 -515 -514 -449 -349
-398 -407 -423 -453 -424 -410 -353 -350 -309 -261 -230 -209 -190 -179 -155 -163 -151 -306 -601 -1096 -112 -401 -128 -108 -118 -153 -425 -83 0 -101 0 -536 -177 -42 -26 -74 -214 -227 -327 -473 -515 -436 -362
-329 -275 -381 -406 -407 -423 -343 -284 -231 -208 -161 -137 -118 -100 -112 -145 -155 -514 -856 -137 -107 0 0 -694 -508 -389 -383 -465 -629 -253 0 -599 -322 -164 -68 -25 -22 -78 -187 -355 -369 -369 -295
-375 -260 -240 -334 -368 -327 -363 -177 -239 -216 -174 -100 -97 -90 -115 -157 -806 0 -631 -886 -600 -562 -467 -601 -497 -380 -268 -152 -114 -125 -274 -584 -658 -442 -191 -61 -8 0 -58 -211 -478 -1 -319
-338 -224 -178 -195 -205 -280 -1014 0 0 0 0 -1016 -796 -155 0 0 0 0 0 0 0 0 0 -764 -497 -385 -262 -183 -105 -76 -107 -171 -202 -216 -203 -91 -21 -1 -1 -84 -323 0 0
-421 -629 -324 -186 -144 -169 -1131 0 0 0 0 0 0 0 0 0 0 0 0 0 0 0 0 0 -12 -20 -17 0 0 0 0 0 0 0 -13 -312 -156 -66 -56 -59 -155 0 0
-595 -715 -475 -474 -311 -173 -313 0 0 0 0 0 0 0 0 0 0 0 0 0 0 0 0 0 0 0 0 0 0 0 0 0 0 0 0 0 0 0 -330 -381 -324 -92 -172
-753 -730 -819 -867 -441 -750 -731 -372 -344 0 0 0 0 0 0 0 0 0 0 0 0 0 0 0 0 0 0 0 0 0 0 0 0 0 0 0 0 0 0 0 0 0 -159
0 0 0 0 0 0 0 0 0 0 0 0 0 0 0 0 0 0 0 0 0 0 0 0 0 0 0 0 0 0 0 0 0 0 0 0 0 0 0 0 0 0 0
0 0 0 0 0 0 0 0 0 0 0 0 0 0 0 0 0 0 0 0 0 0 0 0 0 0 0 0 0 0 0 0 0 0 0 0 0 0 0 0 0 0 0
0 0 0 0 0 0 0 0 0 0 0 0 0 0 0 0 0 0 0 0 0 0 0 0 0 0 0 0 0 0 0 0 0 0 0 0 -1 0 0 0 0 0 0
0 0 0 0 0 0 0 0 0 0 0 0 0 0 0 0 0 0 0 0 0 0 0 0 0 0 0 0 0 0 0 -11 0 0 0 0 0 0 0 0 0 0 0
0 0 0 0 0 0 0 0 0 0 0 0 0 0 0 0 0 0 0 0 0 0 0 0 0 0 0 0 0 0 0 0 0 0 0 0 0 0 0 0 0 0 0
0 0 0 0 0 0 0 0 0 0 0 0 0 0 0 0 0 0 0 0 0 0 0 0 0 0 0 0 0 0 0 0 0 0 0 0 0 0 0 0 0 0 0
0 0 0 0 0 0 0 0 0 0 0 0 0 0 0 0 0 0 0 0 0 0 0 0 0 0 0 0 0 0 0 0 0 0 0 0 0 0 0 0 0 0 0
Wind_Speed
18 18 17 15 15 10 10 10 11 7 9 9 10 10 12 12 11 9 8 8 10 9 6 7 7 6 5 5 3 3 3 4 5 4 4 4 5 6 6 7 6 7 6
20 18 18 15 13 13 12 11 11 12 7 9 8 11 13 13 12 12 11 11 11 10 10 8 11 6 7 6 5 6 5 5 5 7 3 3 5 6 6 9 9 9 7
18 17 16 15 14 15 16 14 11 11 10 7 10 12 13 14 13 13 13 12 11 12 12 12 12 9 10 6 5 6 4 3 4 4 5 3 3 2 3 5 5 7 4
18 18 17 17 16 16 15 15 14 10 10 10 9 11 12 13 14 14 14 13 12 12 12 13 13 13 14 10 7 8 5 4 4 3 3 3 3 4 2 6 6 4 8
19 19 18 17 16 16 15 15 14 14 11 12 12 11 12 12 11 14 14 14 14 13 12 12 14 16 20 16 10 10 8 8 5 6 4 4 4 4 9 5 6 6 7
20 20 18 17 17 17 16 15 15 15 14 13 13 14 14 12 15 19 17 15 15 15 14 14 14 16 18 20 20 18 16 13 12 9 10 9 14 7 4 10 9 4 8
19 17 17 17 17 18 17 16 15 16 15 16 16 15 16 15 16 19 21 15 14 15 16 14 13 13 15 15 18 19 19 21 21 15 16 15 15 14 12 7 10 9 12
17 17 16 16 16 15 15 16 15 14 15 15 16 16 15 15 14 17 19 18 15 16 16 16 17 16 16 15 15 13 18 20 18 15 17 18 17 15 15 15 16 14 5
17 17 16 18 17 16 16 16 15 14 14 15 15 16 17 15 16 17 14 13 15 18 16 16 17 18 15 15 15 16 16 20 18 23 24 23 17 17 15 8 9 9 11
17 16 14 15 17 17 17 17 15 15 15 12 14 15 15 14 14 18 17 11 15 13 15 18 18 18 14 17 17 17 19 18 14 15 14 19 17 16 20 19 14 14 12
15 15 14 16 17 17 16 14 13 14 14 13 14 12 13 12 12 18 20 14 13 12 12 13 12 16 21 18 21 19 22 17 17 15 16 14 15 17 14 16 18 15 14
6 7 9 12 12 11 15 13 13 13 13 12 11 10 8 9 12 16 20 22 17 13 13 11 12 15 18 20 18 23 22 18 14 12 12 15 14 13 14 16 19 18 17
6 7 8 8 9 10 12 11 9 10 10 10 9 8 7 6 8 16 20 21 22 14 11 12 14 13 13 13 18 20 18 12 14 14 14 14 14 14 14 15 17 19 17
6 3 5 7 7 7 7 8 8 8 8 7 7 7 7 7 6 2 5 4 8 5 10 11 9 9 9 9 6 8 9 11 12 14 15 15 14 12 13 14 14 14 15
6 6 4 4 6 5 6 3 3 5 8 9 8 7 6 4 3 3 2 3 1 1 3 3 3 3 7 7 7 8 8 7 9 12 13 14 14 13 12 14 16 16 18
4 4 3 3 4 6 7 7 15 13 10 9 10 9 3 9 7 4 4 3 1 4 2 1 3 3 5 5 5 5 5 6 7 9 11 12 14 15 16 13 15 17 19
5 5 3 3 3 6 7 8 11 9 18 16 14 11 11 9 6 8 8 10 9 6 3 2 2 3 3 4 4 3 3 5 8 8 10 13 15 14 15 19 15 18 21
4 8 2 2 3 6 8 8 8 9 8 5 8 6 7 8 8 9 8 2 4 4 2 1 1 2 2 2 3 2 4 5 6 7 9 11 11 10 12 16 18 17 17
4 6 7 6 7 8 8 8 7 8 8 7 3 5 2 1 2 4 7 3 2 2 2 2 1 2 2 2 3 4 4 4 4 6 8 6 4 3 8 11 13 16 14
8 12 11 8 8 9 9 10 9 9 8 7 6 4 4 3 5 4 4 4 4 3 4 4 4 4 4 4 5 5 4 4 4 4 4 6 6 5 6 6 9 11 12
7 8 11 10 9 9 9 10 9 8 7 7 7 6 7 8 6 6 6 7 6 6 6 5 4 4 4 5 5 5 4 5 4 4 4 3 4 5 5 6 6 8 9
7 8 8 9 8 10 9 9 8 8 7 7 5 8 11 8 7 7 7 7 6 6 6 7 6 7 7 7 6 5 5 6 8 6 5 3 1 3 2 1 4 8 9
9 11 10 9 9 11 10 9 8 8 8 7 7 8 9 8 8 8 8 8 8 8 8 7 8 8 8 9 8 6 5 6 7 5 6 3 4 4 4 3 4 5 8
10 10 12 10 9 10 10 10 10 11 10 9 9 9 8 8 8 8 8 8 8 8 8 9 9 12 10 9 9 8 7 8 8 5 4 4 5 6 6 6 6 7 6
12 10 11 12 11 10 11 11 10 9 9 9 9 9 9 8 8 8 8 7 7 8 10 9 9 13 15 16 14 17 16 11 6 10 2 2 1 3 2 3 3 4 4
9 12 12 11 10 10 10 10 9 9 9 8 7 7 6 6 7 8 7 8 7 7 10 9 12 17 16 12 16 22 15 12 9 5 3 3 4 4 4 5 7 6 7
Wind_Direction
191 196 198 203 202 192 196 201 206 195 193 192 193 191 198 199 199 192 195 195 197 206 201 210 218 210 222 213 213 207 214 158 191 287 233 208 196 185 196 204 214 214 224
192 194 200 197 197 200 202 203 203 209 189 195 188 194 199 202 199 200 202 202 202 202 208 208 225 217 226 218 208 219 207 202 159 220 250 229 210 205 202 195 209 218 216
191 193 195 197 194 202 208 208 206 203 205 182 191 197 197 201 200 204 206 207 204 207 203 207 220 213 228 221 216 223 219 207 212 181 232 217 206 185 182 224 207 227 223
190 193 196 197 198 202 207 211 208 203 203 199 196 198 199 200 202 204 206 210 215 214 209 209 215 214 222 218 212 219 218 215 206 227 231 218 200 227 212 209 226 216 227
190 194 197 197 198 201 202 208 209 208 206 208 207 204 206 201 202 206 209 210 213 219 216 215 218 218 219 216 210 218 198 214 196 216 217 212 199 188 210 192 217 227 241
192 196 195 196 200 201 204 201 205 208 211 207 212 210 208 212 205 199 204 213 215 218 223 223 227 222 224 217 212 215 206 212 219 219 229 222 227 215 195 210 212 186 249
196 196 197 197 200 203 203 203 203 207 206 213 217 217 223 218 203 200 205 216 218 222 223 225 227 228 223 225 223 222 219 215 218 214 228 224 230 219 210 208 207 209 231
193 196 196 195 203 204 202 205 208 209 208 212 217 220 222 226 198 200 204 218 226 229 229 228 229 229 226 218 226 219 229 233 227 225 228 234 230 227 213 211 212 217 217
200 202 194 193 198 201 203 204 206 208 214 216 216 217 222 223 198 199 194 217 230 235 234 232 231 233 228 207 220 227 227 234 227 227 232 238 229 215 204 204 207 199 228
202 204 197 193 200 203 202 205 207 211 215 217 221 220 218 220 198 197 197 219 233 234 237 242 229 235 219 206 217 227 238 240 230 236 237 245 239 228 202 214 223 223 226
200 198 192 198 201 204 204 205 207 209 215 218 223 222 220 208 209 195 198 213 228 236 239 244 243 215 222 217 212 230 239 244 236 232 238 235 235 232 223 220 222 223 220
163 175 198 198 200 197 199 202 207 207 212 217 219 221 219 207 200 200 202 210 219 231 236 240 242 226 220 221 217 232 239 240 247 247 236 240 236 226 225 227 231 224 228
157 204 199 187 184 177 186 191 195 201 208 212 212 216 215 196 210 206 205 210 222 230 239 246 245 242 237 239 234 233 232 243 247 252 251 247 240 234 232 229 227 233 239
6 285 204 186 182 180 185 181 185 189 200 205 204 211 215 210 212 134 194 200 234 246 254 267 270 273 263 262 259 238 238 240 236 243 249 249 251 243 230 220 216 214 217
347 322 262 191 181 139 69 37 199 181 196 192 206 209 210 190 174 146 168 172 168 95 279 248 248 249 263 262 261 255 247 232 234 245 252 256 254 247 235 225 225 216 216
335 325 258 175 169 139 120 82 41 37 45 77 92 121 67 85 116 101 89 81 254 195 130 272 285 268 265 276 284 303 321 312 289 281 273 267 262 255 250 237 224 218 222
332 324 278 207 182 130 118 123 107 51 60 55 73 85 87 116 75 83 86 73 64 120 83 33 336 349 348 330 316 308 330 320 312 297 290 282 271 263 277 269 242 240 227
5 27 97 115 161 132 136 132 126 123 110 76 18 72 99 111 91 120 137 109 51 46 96 111 349 331 321 323 321 321 298 295 304 305 296 288 286 295 292 283 272 275 255
27 48 52 49 52 67 112 114 104 99 96 88 64 63 58 83 130 125 165 100 104 62 22 7 8 358 339 303 295 290 278 290 308 318 307 308 296 313 332 321 297 278 266
66 72 70 65 59 65 76 82 89 89 84 71 55 23 353 50 43 26 28 36 24 7 357 341 324 306 286 278 273 266 279 286 304 301 328 331 330 330 357 35 66 54 60
88 72 76 78 77 74 76 79 88 91 89 80 64 31 34 72 53 40 29 23 14 10 0 347 316 295 281 275 276 283 279 283 265 275 281 303 328 335 6 1 50 65 72
90 94 89 85 88 84 82 81 81 78 73 74 64 44 37 50 39 29 24 18 10 8 1 342 354 345 331 315 288 274 274 279 270 243 246 243 8 35 44 66 108 105 95
107 105 95 89 87 90 88 84 84 84 80 69 59 52 43 40 33 26 17 9 7 8 4 2 352 344 337 322 320 304 284 273 271 257 237 203 149 158 173 143 129 121 136
105 103 104 97 87 87 85 81 74 65 66 63 56 49 45 40 35 26 19 12 12 10 6 2 1 354 341 341 339 329 330 338 308 261 199 166 175 188 159 151 157 160 151
97 104 100 99 99 95 92 86 81 73 69 63 59 55 46 38 34 25 18 13 13 14 14 9 6 357 351 351 350 340 324 327 325 327 294 106 191 184 166 160 158 164 151
95 93 95 96 94 96 101 100 94 89 82 73 65 52 48 52 40 32 15 15 13 17 16 10 8 9 1 343 341 331 323 327 345 333 312 268 206 221 217 207 181 174 167